Radioactive Concentration measured at Dust Monitors near the Site Boundary of Fukushima Daiichi Nuclear Power Station
Date,Time,MP1(Bq/cm3),MP2(Bq/cm3),MP3(Bq/cm3),MP4(Bq/cm3),MP5(Bq/cm3),MP6(Bq/cm3),MP7(Bq/cm3),MP8(Bq/cm3),Wind Direction,Wind Velocity(m/s)
2023/08/04,00:00,1.0E-06,1.0E-06,1.0E-06,1.0E-06,1.0E-06,1.0E-06,1.0E-06,1.0E-06,north,0.7
2023/08/04,00:10,1.0E-06,1.3E-06,1.0E-06,1.0E-06,1.3E-06,1.0E-06,1.0E-06,1.2E-06,northwest,0.8
2023/08/04,00:20,1.3E-06,1.9E-06,1.0E-06,1.0E-06,2.3E-06,1.2E-06,1.0E-06,1.0E-06,-,CALM
2023/08/04,00:30,2.5E-06,2.5E-06,1.3E-06,1.0E-06,3.6E-06,1.2E-06,1.6E-06,1.1E-06,-,CALM
2023/08/04,00:40,2.7E-06,1.5E-06,1.0E-06,1.0E-06,4.0E-06,1.3E-06,1.9E-06,1.0E-06,-,CALM
2023/08/04,00:50,2.2E-06,1.4E-06,2.2E-06,1.0E-06,3.5E-06,1.1E-06,1.0E-06,1.0E-06,southeast,1.0
2023/08/04,01:00,1.0E-06,1.1E-06,1.1E-06,1.0E-06,3.8E-06,1.5E-06,1.5E-06,1.0E-06,south-southeast,1.1
2023/08/04,01:10,1.0E-06,1.2E-06,1.0E-06,1.0E-06,2.6E-06,1.0E-06,2.3E-06,1.0E-06,south-southeast,0.8
2023/08/04,01:20,1.0E-06,1.0E-06,1.0E-06,1.0E-06,1.4E-06,1.0E-06,1.5E-06,1.0E-06,south-southeast,1.4
2023/08/04,01:30,1.0E-06,1.0E-06,1.0E-06,1.0E-06,1.0E-06,1.2E-06,1.0E-06,1.0E-06,southeast,1.6
2023/08/04,01:40,1.0E-06,1.0E-06,1.0E-06,1.4E-06,1.0E-06,1.0E-06,1.0E-06,1.0E-06,south,1.3
2023/08/04,01:50,1.0E-06,1.0E-06,1.0E-06,1.9E-06,1.0E-06,1.0E-06,1.0E-06,1.0E-06,southwest,0.5
2023/08/04,02:00,1.0E-06,1.0E-06,1.0E-06,2.0E-06,1.0E-06,1.0E-06,1.0E-06,1.0E-06,west-southwest,0.6
2023/08/04,02:10,1.0E-06,1.0E-06,1.7E-06,2.1E-06,1.0E-06,1.0E-06,1.0E-06,1.0E-06,-,CALM
2023/08/04,02:20,1.8E-06,1.0E-06,1.8E-06,1.2E-06,1.0E-06,1.0E-06,1.0E-06,1.0E-06,-,CALM
2023/08/04,02:30,1.0E-06,1.0E-06,3.2E-06,1.4E-06,1.0E-06,1.0E-06,1.0E-06,1.0E-06,-,CALM
2023/08/04,02:40,1.3E-06,1.0E-06,3.0E-06,2.6E-06,1.0E-06,1.0E-06,1.0E-06,1.0E-06,-,CALM
2023/08/04,02:50,1.6E-06,1.1E-06,3.0E-06,1.1E-06,1.0E-06,1.0E-06,1.0E-06,1.4E-06,southwest,0.6
2023/08/04,03:00,1.6E-06,1.8E-06,2.0E-06,1.4E-06,1.0E-06,1.0E-06,1.0E-06,1.5E-06,-,CALM
2023/08/04,03:10,1.0E-06,2.1E-06,1.8E-06,1.0E-06,1.0E-06,1.3E-06,1.1E-06,1.0E-06,-,CALM
2023/08/04,03:20,1.0E-06,1.9E-06,1.5E-06,1.0E-06,1.0E-06,1.7E-06,1.0E-06,1.0E-06,-,CALM
2023/08/04,03:30,1.0E-06,2.5E-06,1.0E-06,1.0E-06,1.0E-06,3.2E-06,1.0E-06,1.0E-06,-,CALM
2023/08/04,03:40,1.0E-06,3.0E-06,1.0E-06,1.0E-06,1.0E-06,2.1E-06,1.0E-06,1.0E-06,-,CALM
2023/08/04,03:50,1.0E-06,1.7E-06,1.0E-06,1.0E-06,1.0E-06,2.1E-06,1.0E-06,1.0E-06,-,CALM
2023/08/04,04:00,2.5E-06,1.0E-06,1.0E-06,1.0E-06,1.0E-06,2.3E-06,1.0E-06,1.0E-06,-,CALM
2023/08/04,04:10,3.2E-06,1.0E-06,1.0E-06,1.0E-06,1.0E-06,1.5E-06,1.0E-06,1.0E-06,west-northwest,0.6
2023/08/04,04:20,3.1E-06,1.0E-06,1.0E-06,1.0E-06,1.0E-06,1.8E-06,1.0E-06,1.0E-06,southwest,0.5
2023/08/04,04:30,4.0E-06,1.0E-06,1.0E-06,1.0E-06,1.2E-06,1.0E-06,1.3E-06,1.0E-06,north-northwest,0.9
2023/08/04,04:40,3.6E-06,1.0E-06,1.0E-06,1.0E-06,1.0E-06,1.0E-06,1.0E-06,1.0E-06,north-northwest,0.7
2023/08/04,04:50,3.1E-06,1.0E-06,1.0E-06,1.0E-06,1.6E-06,1.0E-06,1.0E-06,1.0E-06,northwest,0.7
2023/08/04,05:00,1.1E-06,1.0E-06,1.1E-06,1.0E-06,1.0E-06,1.0E-06,1.0E-06,1.0E-06,-,CALM
2023/08/04,05:10,1.0E-06,1.0E-06,1.0E-06,1.0E-06,1.0E-06,1.0E-06,1.7E-06,1.0E-06,north,1.3
2023/08/04,05:20,1.0E-06,1.0E-06,1.0E-06,1.0E-06,1.0E-06,1.0E-06,1.0E-06,1.0E-06,north-northeast,0.7
2023/08/04,05:30,1.0E-06,1.0E-06,1.0E-06,1.0E-06,1.0E-06,1.0E-06,1.0E-06,1.0E-06,east-southeast,0.9
2023/08/04,05:40,1.0E-06,1.0E-06,1.0E-06,1.0E-06,1.0E-06,1.0E-06,1.2E-06,1.0E-06,east,0.6
2023/08/04,05:50,1.0E-06,1.1E-06,1.0E-06,1.0E-06,1.0E-06,1.0E-06,2.1E-06,1.0E-06,east-southeast,0.7
2023/08/04,06:00,1.0E-06,1.0E-06,1.0E-06,1.0E-06,1.0E-06,1.0E-06,2.3E-06,1.0E-06,-,CALM
2023/08/04,06:10,1.0E-06,1.0E-06,1.0E-06,1.0E-06,1.0E-06,1.0E-06,2.4E-06,1.0E-06,-,CALM
2023/08/04,06:20,1.0E-06,1.0E-06,1.0E-06,1.0E-06,1.0E-06,1.0E-06,2.6E-06,1.0E-06,north,0.6
2023/08/04,06:30,1.0E-06,1.0E-06,1.0E-06,1.0E-06,1.0E-06,1.0E-06,2.0E-06,1.0E-06,-,CALM
2023/08/04,06:40,1.0E-06,1.0E-06,1.0E-06,1.0E-06,1.0E-06,1.5E-06,1.3E-06,1.0E-06,east,0.6
2023/08/04,06:50,1.0E-06,1.0E-06,1.0E-06,1.0E-06,1.0E-06,1.0E-06,1.0E-06,1.0E-06,north-northeast,1.0
2023/08/04,07:00,1.0E-06,1.0E-06,1.0E-06,1.0E-06,1.0E-06,1.0E-06,1.0E-06,2.3E-06,north-northeast,1.0
2023/08/04,07:10,1.0E-06,1.0E-06,1.0E-06,1.0E-06,1.0E-06,1.0E-06,1.0E-06,1.7E-06,east-southeast,1.1
2023/08/04,07:20,1.0E-06,1.0E-06,1.0E-06,1.0E-06,1.0E-06,1.0E-06,1.0E-06,2.4E-06,east,1.0
2023/08/04,07:30,1.0E-06,1.0E-06,1.0E-06,1.0E-06,1.0E-06,1.0E-06,1.0E-06,1.2E-06,southeast,1.1
2023/08/04,07:40,1.0E-06,1.0E-06,1.0E-06,1.0E-06,1.0E-06,1.0E-06,1.0E-06,1.7E-06,southeast,1.5
2023/08/04,07:50,1.0E-06,1.0E-06,1.0E-06,1.3E-06,1.0E-06,1.0E-06,1.0E-06,1.0E-06,east,1.5
2023/08/04,08:00,1.0E-06,1.0E-06,1.0E-06,1.2E-06,1.0E-06,1.0E-06,1.0E-06,1.0E-06,east-northeast,1.9
2023/08/04,08:10,1.0E-06,1.3E-06,1.0E-06,1.0E-06,1.0E-06,1.0E-06,1.0E-06,1.0E-06,east-northeast,1.5
2023/08/04,08:20,1.0E-06,1.0E-06,1.0E-06,1.0E-06,1.8E-06,1.0E-06,1.0E-06,1.0E-06,east,1.8
2023/08/04,08:30,1.0E-06,1.0E-06,1.0E-06,1.0E-06,1.5E-06,1.4E-06,1.0E-06,1.0E-06,east,1.9
2023/08/04,08:40,1.0E-06,1.9E-06,1.0E-06,1.4E-06,2.0E-06,1.0E-06,1.0E-06,1.0E-06,east-northeast,2.2
2023/08/04,08:50,1.0E-06,1.2E-06,1.0E-06,1.0E-06,1.8E-06,1.0E-06,1.0E-06,1.0E-06,east,1.7
2023/08/04,09:00,1.0E-06,1.0E-06,1.0E-06,1.0E-06,1.8E-06,1.0E-06,1.0E-06,1.0E-06,east,1.9
2023/08/04,09:10,1.0E-06,1.0E-06,1.0E-06,1.0E-06,1.3E-06,1.0E-06,1.0E-06,1.0E-06,east,1.9
2023/08/04,09:20,1.0E-06,1.0E-06,1.0E-06,1.0E-06,1.0E-06,1.0E-06,1.0E-06,1.0E-06,east-northeast,1.9
2023/08/04,09:30,1.0E-06,1.0E-06,1.0E-06,1.0E-06,1.0E-06,1.0E-06,1.0E-06,1.0E-06,east,2.3
2023/08/04,09:40,1.0E-06,1.0E-06,1.0E-06,1.6E-06,1.0E-06,1.0E-06,1.0E-06,1.0E-06,east,2.0
2023/08/04,09:50,1.0E-06,1.0E-06,1.0E-06,1.0E-06,1.0E-06,1.0E-06,1.0E-06,1.0E-06,east-southeast,1.9
2023/08/04,10:00,1.0E-06,1.0E-06,1.0E-06,2.0E-06,1.0E-06,1.0E-06,1.0E-06,1.0E-06,east,1.7
2023/08/04,10:10,1.0E-06,1.0E-06,1.0E-06,1.2E-06,1.0E-06,1.0E-06,1.0E-06,1.0E-06,east-southeast,1.9
2023/08/04,10:20,1.0E-06,1.0E-06,1.0E-06,1.0E-06,1.0E-06,1.0E-06,1.0E-06,1.0E-06,east-southeast,1.8
2023/08/04,10:30,1.0E-06,1.0E-06,1.0E-06,1.0E-06,1.0E-06,1.0E-06,1.0E-06,1.0E-06,southeast,1.7
2023/08/04,10:40,1.0E-06,1.0E-06,1.0E-06,1.0E-06,1.0E-06,1.0E-06,1.0E-06,1.0E-06,east-southeast,1.4
2023/08/04,10:50,1.0E-06,1.0E-06,1.3E-06,1.0E-06,1.0E-06,1.0E-06,1.0E-06,1.0E-06,east-southeast,1.8
2023/08/04,11:00,1.0E-06,1.0E-06,1.0E-06,1.0E-06,1.0E-06,1.0E-06,1.0E-06,1.0E-06,east-southeast,1.8
2023/08/04,11:10,1.0E-06,1.0E-06,1.0E-06,1.0E-06,1.0E-06,1.0E-06,1.0E-06,1.0E-06,southeast,2.4
2023/08/04,11:20,1.0E-06,1.1E-06,1.0E-06,1.0E-06,1.0E-06,1.0E-06,1.0E-06,1.0E-06,southeast,2.0
2023/08/04,11:30,1.0E-06,1.0E-06,1.0E-06,1.0E-06,1.0E-06,1.0E-06,1.0E-06,1.0E-06,south-southeast,2.0
2023/08/04,11:40,1.0E-06,1.0E-06,1.0E-06,1.0E-06,1.0E-06,1.0E-06,1.0E-06,1.0E-06,southeast,2.2
2023/08/04,11:50,1.0E-06,1.0E-06,1.0E-06,1.0E-06,1.0E-06,1.0E-06,1.0E-06,1.0E-06,southeast,3.2
2023/08/04,12:00,1.0E-06,1.0E-06,1.0E-06,1.0E-06,1.0E-06,1.0E-06,1.0E-06,1.0E-06,south-southeast,2.8
2023/08/04,12:10,1.0E-06,1.0E-06,1.0E-06,1.0E-06,1.0E-06,1.0E-06,1.0E-06,1.0E-06,south-southeast,2.8
2023/08/04,12:20,1.0E-06,1.0E-06,1.0E-06,1.0E-06,1.0E-06,1.0E-06,1.0E-06,1.0E-06,southeast,3.1
2023/08/04,12:30,1.0E-06,1.0E-06,1.0E-06,1.0E-06,1.0E-06,1.0E-06,1.0E-06,1.1E-06,southeast,2.7
2023/08/04,12:40,1.0E-06,1.0E-06,1.0E-06,1.0E-06,1.0E-06,1.0E-06,1.0E-06,1.0E-06,southeast,3.2
2023/08/04,12:50,1.0E-06,1.0E-06,1.0E-06,1.0E-06,1.0E-06,1.0E-06,1.0E-06,1.0E-06,southeast,3.3
2023/08/04,13:00,1.0E-06,1.0E-06,1.0E-06,1.0E-06,1.0E-06,1.0E-06,1.0E-06,1.0E-06,southeast,3.1
2023/08/04,13:10,1.0E-06,1.0E-06,1.0E-06,1.0E-06,1.0E-06,1.0E-06,1.0E-06,1.0E-06,south-southeast,2.6
2023/08/04,13:20,1.0E-06,1.0E-06,1.0E-06,1.0E-06,1.0E-06,1.0E-06,1.0E-06,1.0E-06,southeast,1.9
2023/08/04,13:30,1.0E-06,1.0E-06,1.0E-06,1.0E-06,1.0E-06,1.0E-06,1.0E-06,1.0E-06,south-southeast,2.6
2023/08/04,13:40,1.0E-06,1.0E-06,1.0E-06,1.0E-06,1.0E-06,1.0E-06,1.0E-06,1.0E-06,southeast,3.1
2023/08/04,13:50,1.0E-06,1.0E-06,1.0E-06,1.0E-06,1.0E-06,1.0E-06,1.0E-06,1.0E-06,south-southeast,3.5
2023/08/04,14:00,1.0E-06,1.0E-06,1.0E-06,1.0E-06,1.0E-06,1.0E-06,1.0E-06,1.0E-06,southeast,2.8
2023/08/04,14:10,1.0E-06,1.0E-06,1.0E-06,1.0E-06,1.0E-06,1.0E-06,1.0E-06,1.0E-06,south-southeast,3.0
2023/08/04,14:20,1.0E-06,1.0E-06,1.0E-06,1.0E-06,1.0E-06,1.0E-06,1.0E-06,1.0E-06,south-southeast,3.6
2023/08/04,14:30,1.0E-06,1.0E-06,1.0E-06,1.0E-06,1.0E-06,1.0E-06,1.0E-06,1.0E-06,south-southeast,3.3
2023/08/04,14:40,1.0E-06,1.0E-06,1.0E-06,1.0E-06,1.0E-06,1.0E-06,1.0E-06,1.0E-06,southeast,2.6
2023/08/04,14:50,1.0E-06,1.0E-06,1.0E-06,1.0E-06,1.0E-06,1.0E-06,1.0E-06,1.0E-06,southeast,2.8
2023/08/04,15:00,1.0E-06,1.0E-06,1.0E-06,1.0E-06,1.0E-06,1.0E-06,1.0E-06,1.0E-06,south-southeast,3.5
2023/08/04,15:10,1.0E-06,1.0E-06,1.0E-06,1.0E-06,1.0E-06,1.0E-06,1.0E-06,1.0E-06,south-southeast,3.2
2023/08/04,15:20,1.0E-06,1.0E-06,1.0E-06,1.0E-06,1.0E-06,1.0E-06,1.0E-06,1.0E-06,south-southeast,3.0
2023/08/04,15:30,1.0E-06,1.0E-06,1.0E-06,1.0E-06,1.0E-06,1.0E-06,1.0E-06,1.0E-06,south-southeast,3.1
2023/08/04,15:40,1.0E-06,1.0E-06,1.0E-06,1.0E-06,1.0E-06,1.0E-06,1.0E-06,1.0E-06,south-southeast,2.8
2023/08/04,15:50,1.0E-06,1.0E-06,1.0E-06,1.0E-06,1.0E-06,1.0E-06,1.0E-06,1.0E-06,south-southeast,2.9
2023/08/04,16:00,1.0E-06,1.0E-06,1.0E-06,1.0E-06,1.0E-06,1.0E-06,1.0E-06,1.0E-06,south-southeast,2.9
2023/08/04,16:10,1.0E-06,1.0E-06,1.0E-06,1.0E-06,1.0E-06,1.0E-06,1.0E-06,1.0E-06,south-southeast,3.1
2023/08/04,16:20,1.0E-06,1.0E-06,1.0E-06,1.0E-06,1.0E-06,1.0E-06,1.0E-06,1.0E-06,south-southeast,3.4
2023/08/04,16:30,1.0E-06,1.0E-06,1.0E-06,1.0E-06,1.0E-06,1.0E-06,1.0E-06,1.0E-06,south-southeast,3.0
2023/08/04,16:40,1.0E-06,1.0E-06,1.0E-06,1.0E-06,1.0E-06,1.0E-06,1.0E-06,1.0E-06,south-southeast,2.5
2023/08/04,16:50,1.0E-06,1.0E-06,1.0E-06,1.0E-06,1.0E-06,1.0E-06,1.0E-06,1.0E-06,south-southeast,3.2
2023/08/04,17:00,1.0E-06,1.0E-06,1.0E-06,1.0E-06,1.0E-06,1.0E-06,1.0E-06,1.0E-06,south,3.1
2023/08/04,17:10,1.0E-06,1.0E-06,1.0E-06,1.0E-06,1.0E-06,1.0E-06,1.0E-06,1.0E-06,south-southeast,2.4
2023/08/04,17:20,1.0E-06,1.0E-06,1.0E-06,1.0E-06,1.0E-06,1.0E-06,1.0E-06,1.0E-06,south,2.5
2023/08/04,17:30,1.0E-06,1.0E-06,1.0E-06,1.0E-06,1.0E-06,1.0E-06,1.0E-06,1.0E-06,south-southwest,2.7
2023/08/04,17:40,1.0E-06,1.0E-06,1.0E-06,1.0E-06,1.0E-06,1.0E-06,1.0E-06,1.0E-06,south-southwest,2.4
2023/08/04,17:50,1.0E-06,1.0E-06,1.0E-06,1.0E-06,1.0E-06,1.0E-06,1.0E-06,1.0E-06,south,2.0
2023/08/04,18:00,1.0E-06,1.0E-06,1.0E-06,1.0E-06,1.0E-06,1.0E-06,1.0E-06,1.0E-06,south-southeast,3.1
2023/08/04,18:10,1.0E-06,1.0E-06,1.0E-06,1.0E-06,1.0E-06,1.0E-06,1.0E-06,1.0E-06,south,1.9
2023/08/04,18:20,1.0E-06,1.0E-06,1.0E-06,1.0E-06,1.0E-06,1.0E-06,1.0E-06,1.0E-06,southeast,1.6
2023/08/04,18:30,1.0E-06,1.0E-06,1.0E-06,1.0E-06,1.0E-06,1.0E-06,1.0E-06,1.0E-06,south,2.2
2023/08/04,18:40,1.0E-06,1.0E-06,1.0E-06,1.0E-06,1.0E-06,1.0E-06,1.0E-06,1.0E-06,south-southwest,2.3
2023/08/04,18:50,1.0E-06,1.0E-06,1.0E-06,1.0E-06,1.0E-06,1.0E-06,1.0E-06,1.0E-06,south,2.1
2023/08/04,19:00,1.0E-06,1.0E-06,1.0E-06,1.0E-06,1.0E-06,1.0E-06,1.0E-06,1.0E-06,south,1.6
2023/08/04,19:10,1.0E-06,1.0E-06,1.0E-06,1.0E-06,1.0E-06,1.0E-06,1.0E-06,1.0E-06,south,1.7
2023/08/04,19:20,1.0E-06,1.0E-06,1.0E-06,1.0E-06,1.0E-06,1.0E-06,1.0E-06,1.0E-06,south-southwest,2.0
2023/08/04,19:30,1.0E-06,1.0E-06,1.0E-06,1.0E-06,1.0E-06,1.0E-06,1.0E-06,1.0E-06,south-southwest,1.9
2023/08/04,19:40,1.0E-06,1.0E-06,1.0E-06,1.0E-06,1.0E-06,1.0E-06,1.0E-06,1.0E-06,south-southwest,2.5
2023/08/04,19:50,1.0E-06,1.0E-06,1.0E-06,1.0E-06,1.0E-06,1.0E-06,1.0E-06,1.0E-06,south-southwest,2.1
2023/08/04,20:00,1.0E-06,1.0E-06,1.0E-06,1.0E-06,1.0E-06,1.0E-06,1.0E-06,1.0E-06,west-southwest,1.0
2023/08/04,20:10,1.0E-06,1.0E-06,1.0E-06,1.0E-06,1.0E-06,1.0E-06,1.0E-06,1.0E-06,west-southwest,0.9
2023/08/04,20:20,1.0E-06,1.0E-06,1.0E-06,1.0E-06,1.0E-06,1.0E-06,1.0E-06,1.0E-06,west-southwest,0.7
2023/08/04,20:30,1.0E-06,1.0E-06,1.0E-06,1.0E-06,1.0E-06,1.0E-06,1.0E-06,1.0E-06,west,0.6
2023/08/04,20:40,1.0E-06,1.0E-06,1.1E-06,1.0E-06,1.1E-06,1.4E-06,1.0E-06,1.0E-06,west,0.8
2023/08/04,20:50,1.0E-06,1.0E-06,1.5E-06,1.0E-06,1.3E-06,1.6E-06,1.6E-06,1.0E-06,-,CALM
2023/08/04,21:00,1.1E-06,1.2E-06,1.7E-06,1.6E-06,1.5E-06,1.3E-06,1.0E-06,1.0E-06,-,CALM
2023/08/04,21:10,1.0E-06,1.0E-06,1.7E-06,1.8E-06,1.8E-06,1.5E-06,1.3E-06,1.8E-06,-,CALM
2023/08/04,21:20,1.2E-06,1.8E-06,1.4E-06,1.0E-06,1.1E-06,2.2E-06,1.0E-06,1.0E-06,southwest,0.6
2023/08/04,21:30,1.3E-06,1.0E-06,1.6E-06,1.0E-06,1.9E-06,1.4E-06,1.0E-06,1.0E-06,south-southwest,0.5
2023/08/04,21:40,1.2E-06,1.0E-06,1.0E-06,2.3E-06,1.0E-06,1.0E-06,1.0E-06,1.0E-06,southwest,0.5
2023/08/04,21:50,1.1E-06,1.4E-06,1.2E-06,1.0E-06,1.0E-06,1.0E-06,1.6E-06,1.0E-06,southwest,0.5
2023/08/04,22:00,1.0E-06,1.0E-06,1.0E-06,1.1E-06,1.0E-06,1.0E-06,2.1E-06,1.0E-06,west-southwest,0.8
2023/08/04,22:10,1.3E-06,1.0E-06,1.0E-06,1.0E-06,1.2E-06,1.0E-06,2.7E-06,1.0E-06,-,CALM
2023/08/04,22:20,1.0E-06,1.0E-06,1.0E-06,1.0E-06,1.2E-06,1.0E-06,2.6E-06,1.0E-06,north-northwest,0.8
2023/08/04,22:30,1.0E-06,1.0E-06,1.0E-06,1.1E-06,1.0E-06,1.0E-06,1.4E-06,1.0E-06,-,CALM
2023/08/04,22:40,1.0E-06,1.0E-06,1.0E-06,1.0E-06,1.0E-06,1.0E-06,2.2E-06,1.0E-06,-,CALM
2023/08/04,22:50,1.0E-06,1.0E-06,1.0E-06,1.0E-06,1.0E-06,1.0E-06,1.0E-06,1.3E-06,north-northeast,0.6
2023/08/04,23:00,1.0E-06,1.0E-06,1.0E-06,1.0E-06,1.0E-06,1.0E-06,1.0E-06,1.5E-06,north,0.6
2023/08/04,23:10,1.0E-06,1.3E-06,1.0E-06,1.0E-06,1.0E-06,1.0E-06,1.0E-06,2.0E-06,north-northeast,0.6
2023/08/04,23:20,1.0E-06,1.0E-06,1.0E-06,1.0E-06,1.0E-06,1.0E-06,1.0E-06,1.9E-06,east-northeast,0.6
2023/08/04,23:30,1.0E-06,1.0E-06,1.0E-06,1.0E-06,1.0E-06,1.0E-06,1.0E-06,2.1E-06,east-northeast,0.5
2023/08/04,23:40,1.0E-06,1.0E-06,1.0E-06,1.0E-06,1.0E-06,1.0E-06,1.0E-06,2.5E-06,-,CALM
2023/08/04,23:50,1.0E-06,1.0E-06,1.0E-06,1.0E-06,1.5E-06,1.0E-06,1.0E-06,1.3E-06,-,CALM
